,,,PA_Meas_PMT16A,,PR_Meas_QMR101_102,,RH_Meas_QMH101,,SR_Meas_QMS101,,TA_Meas_QMH101,,GenWind,,GenWind,
date,time,status,PA,status,PR,status,RH,status,SR,status,TA,status,DirAvg,status,SpdAvg,
2009-10-05, 00:00:04,VALID,1001.09,VALID,0,VALID,84.5057,VALID,0.112286,VALID,24.8117,VALID,88,VALID,0.598047,
2009-10-05, 00:01:04,VALID,1001.08,VALID,0,VALID,85.0397,VALID,0,VALID,24.8117,VALID,82,VALID,0.726172,
2009-10-05, 00:02:04,VALID,1001.06,VALID,0,VALID,85.1313,VALID,0,VALID,24.7922,VALID,79,VALID,0.637109,
2009-10-05, 00:03:04,VALID,1001.1,VALID,0,VALID,85.322,VALID,0.112286,VALID,24.7727,VALID,69,VALID,0.675781,
2009-10-05, 00:04:04,VALID,1001.06,VALID,0,VALID,85.467,VALID,0,VALID,24.7337,VALID,61,VALID,0.746484,
2009-10-05, 00:05:04,VALID,1001.05,VALID,0,VALID,85.4899,VALID,0,VALID,24.7142,VALID,57,VALID,0.975391,
2009-10-05, 00:06:04,VALID,1001.02,VALID,0,VALID,85.734,VALID,0,VALID,24.6556,VALID,57,VALID,0.898438,
2009-10-05, 00:07:04,VALID,1001.03,VALID,0,VALID,85.7722,VALID,0.112286,VALID,24.6361,VALID,57,VALID,0.494922,
2009-10-05, 00:08:04,VALID,1000.98,VALID,0,VALID,85.7112,VALID,0.112286,VALID,24.6361,VALID,57,VALID,0.387891,
2009-10-05, 00:09:04,VALID,1000.99,VALID,0,VALID,85.6425,VALID,0,VALID,24.6361,VALID,58,VALID,0.551562,
2009-10-05, 00:10:04,VALID,1000.97,VALID,0,VALID,85.4823,VALID,0,VALID,24.6361,VALID,70,VALID,0.83125,
2009-10-05, 00:11:04,VALID,1000.98,VALID,0,VALID,85.3068,VALID,0.112286,VALID,24.5971,VALID,68,VALID,1.21953,
2009-10-05, 00:12:04,VALID,1000.95,VALID,0,VALID,85.5204,VALID,0,VALID,24.519,VALID,67,VALID,1.00312,
2009-10-05, 00:13:04,VALID,1000.96,VALID,0,VALID,85.6654,VALID,0.112286,VALID,24.4604,VALID,78,VALID,1.03125,
2009-10-05, 00:14:04,VALID,1000.94,VALID,0,VALID,85.9095,VALID,0,VALID,24.3629,VALID,78,VALID,0.863281,
2009-10-05, 00:15:04,VALID,1000.94,VALID,0,VALID,86.3368,VALID,0,VALID,24.347,VALID,89,VALID,0.990234,
2009-10-05, 00:16:04,VALID,1000.93,VALID,0,VALID,86.5657,VALID,0,VALID,24.2671,VALID,90,VALID,0.583984,
2009-10-05, 00:17:04,VALID,1000.91,VALID,0,VALID,86.7259,VALID,0,VALID,24.2281,VALID,84,VALID,0.836328,
2009-10-05, 00:18:04,VALID,1000.93,VALID,0,VALID,86.8937,VALID,0,VALID,24.2086,VALID,77,VALID,0.875781,
2009-10-05, 00:19:04,VALID,1000.95,VALID,0,VALID,87.0387,VALID,0,VALID,24.1696,VALID,77,VALID,0.58125,
2009-10-05, 00:20:04,VALID,1000.95,VALID,0,VALID,87.1379,VALID,0,VALID,24.1696,VALID,77,VALID,0.696484,
2009-10-05, 00:21:04,VALID,1000.93,VALID,0,VALID,87.321,VALID,0,VALID,24.1891,VALID,73,VALID,0.355469,
2009-10-05, 00:22:04,VALID,1000.92,VALID,0,VALID,87.2371,VALID,0,VALID,24.2086,VALID,73,VALID,0.447656,
2009-10-05, 00:23:04,VALID,1000.93,VALID,0,VALID,87.0921,VALID,0,VALID,24.2086,VALID,73,VALID,0.515234,
2009-10-05, 00:24:04,VALID,1000.92,VALID,0,VALID,86.97,VALID,0,VALID,24.2086,VALID,73,VALID,0.451953,
2009-10-05, 00:25:04,VALID,1000.9,VALID,0,VALID,86.97,VALID,0,VALID,24.1891,VALID,21,VALID,0.816016,
2009-10-05, 00:26:04,VALID,1000.91,VALID,0,VALID,86.7869,VALID,0,VALID,24.15,VALID,6,VALID,0.745703,
2009-10-05, 00:27:04,VALID,1000.92,VALID,0,VALID,87.1455,VALID,0,VALID,24.0915,VALID,2,VALID,0.79375,
2009-10-05, 00:28:04,VALID,1000.88,VALID,0,VALID,87.4126,VALID,0,VALID,24.0525,VALID,2,VALID,0.654297,
2009-10-05, 00:29:04,VALID,1000.87,VALID,0,VALID,87.4583,VALID,0,VALID,24.0134,VALID,2,VALID,0.646094,
2009-10-05, 00:30:04,VALID,1000.89,VALID,0,VALID,87.7025,VALID,0,VALID,24.0134,VALID,2,VALID,0.607422,
2009-10-05, 00:31:04,VALID,1000.89,VALID,0,VALID,87.5957,VALID,0,VALID,23.9939,VALID,2,VALID,0.510938,
2009-10-05, 00:32:04,VALID,1000.87,VALID,0,VALID,87.8017,VALID,0,VALID,23.9549,VALID,2,VALID,0.55625,
2009-10-05, 00:33:04,VALID,1000.85,VALID,0,VALID,88.1526,VALID,0,VALID,23.9549,VALID,2,VALID,0.433594,
2009-10-05, 00:34:04,VALID,1000.87,VALID,0,VALID,87.939,VALID,0,VALID,23.9549,VALID,40,VALID,0.604297,
2009-10-05, 00:35:04,VALID,1000.86,VALID,0,VALID,87.9466,VALID,0,VALID,23.9549,VALID,41,VALID,0.482812,
2009-10-05, 00:36:04,VALID,1000.85,VALID,0,VALID,87.7254,VALID,0,VALID,23.9744,VALID,41,VALID,0.413281,
2009-10-05, 00:37:04,VALID,1000.84,VALID,0,VALID,87.6186,VALID,0,VALID,23.9354,VALID,10,VALID,0.652734,
2009-10-05, 00:38:04,VALID,1000.84,VALID,0,VALID,87.3897,VALID,0,VALID,23.9372,VALID,11,VALID,0.821094,
2009-10-05, 00:39:04,VALID,1000.84,VALID,0,VALID,87.6872,VALID,0,VALID,23.8768,VALID,30,VALID,0.897656,
2009-10-05, 00:40:04,VALID,1000.82,VALID,0,VALID,87.7559,VALID,0,VALID,23.8573,VALID,61,VALID,0.621484,
2009-10-05, 00:41:04,VALID,1000.8,VALID,0,VALID,87.6796,VALID,0,VALID,23.8378,VALID,52,VALID,0.786719,
2009-10-05, 00:42:04,VALID,1000.81,VALID,0,VALID,87.7788,VALID,0,VALID,23.8378,VALID,52,VALID,0.829687,
2009-10-05, 00:43:04,VALID,1000.83,VALID,0,VALID,87.7101,VALID,0,VALID,23.8786,VALID,52,VALID,0.650781,
2009-10-05, 00:44:04,VALID,1000.79,VALID,0,VALID,87.6491,VALID,0,VALID,23.8963,VALID,52,VALID,0.578906,
2009-10-05, 00:45:04,VALID,1000.78,VALID,0,VALID,87.4354,VALID,0.112286,VALID,23.914,VALID,52,VALID,0.502734,
2009-10-05, 00:46:04,VALID,1000.76,VALID,0,VALID,87.3439,VALID,0.112286,VALID,23.9531,VALID,52,VALID,0.591797,
2009-10-05, 00:47:04,VALID,1000.76,VALID,0,VALID,87.115,VALID,0.112286,VALID,23.9921,VALID,52,VALID,0.489062,
2009-10-05, 00:48:04,VALID,1000.75,VALID,0,VALID,86.8709,VALID,0.112286,VALID,24.0311,VALID,52,VALID,0.621094,
2009-10-05, 00:49:04,VALID,1000.72,VALID,0,VALID,86.6877,VALID,0,VALID,24.0701,VALID,56,VALID,0.701563,
2009-10-05, 00:50:04,VALID,1000.69,VALID,0,VALID,86.3902,VALID,0,VALID,24.1092,VALID,56,VALID,0.516016,
2009-10-05, 00:51:04,VALID,1000.68,VALID,0,VALID,86.0697,VALID,0,VALID,24.15,VALID,59,VALID,0.583594,
2009-10-05, 00:52:04,VALID,1000.71,VALID,0,VALID,86.1079,VALID,0.112286,VALID,24.1482,VALID,59,VALID,0.668359,
2009-10-05, 00:53:04,VALID,1000.71,VALID,0,VALID,85.6272,VALID,0,VALID,24.1482,VALID,59,VALID,0.488281,
2009-10-05, 00:54:04,VALID,1000.71,VALID,0,VALID,85.6577,VALID,0,VALID,24.1482,VALID,59,VALID,0.28125,
2009-10-05, 00:55:04,VALID,1000.71,VALID,0,VALID,85.3907,VALID,0,VALID,24.1696,VALID,59,VALID,0.572266,
2009-10-05, 00:56:04,VALID,1000.71,VALID,0,VALID,85.6501,VALID,0,VALID,24.1092,VALID,59,VALID,0.504687,
2009-10-05, 00:57:04,VALID,1000.71,VALID,0,VALID,85.6425,VALID,0,VALID,24.1092,VALID,59,VALID,0.2875,
2009-10-05, 00:58:04,VALID,1000.68,VALID,0,VALID,85.3907,VALID,0,VALID,24.0897,VALID,59,VALID,0.18125,
2009-10-05, 00:59:04,VALID,1000.66,VALID,0,VALID,85.6349,VALID,0,VALID,24.072,VALID,59,VALID,0.282031,
2009-10-05, 01:00:04,VALID,1000.67,VALID,0,VALID,85.7646,VALID,0,VALID,24.0701,VALID,24,VALID,0.573047,
2009-10-05, 01:01:04,VALID,1000.68,VALID,0,VALID,85.9095,VALID,0.112286,VALID,24.0311,VALID,12,VALID,0.583203,
2009-10-05, 01:02:04,VALID,1000.68,VALID,0,VALID,85.9934,VALID,0,VALID,24.0311,VALID,10,VALID,0.238672,
2009-10-05, 01:03:04,VALID,1000.7,VALID,0,VALID,86.1232,VALID,0,VALID,24.0116,VALID,10,VALID,0.291797,
2009-10-05, 01:04:04,VALID,1000.66,VALID,0,VALID,85.8866,VALID,0,VALID,24.0329,VALID,10,VALID,0.502734,
2009-10-05, 01:05:04,VALID,1000.65,VALID,0,VALID,85.6959,VALID,0,VALID,23.9531,VALID,10,VALID,0.668359,
2009-10-05, 01:06:04,VALID,1000.64,VALID,0,VALID,86.1842,VALID,0,VALID,23.914,VALID,10,VALID,0.433594,
2009-10-05, 01:07:04,VALID,1000.61,VALID,0,VALID,86.6115,VALID,0.112286,VALID,23.8945,VALID,10,VALID,0.217969,
2009-10-05, 01:08:04,VALID,1000.62,VALID,0,VALID,86.6267,VALID,0.112286,VALID,23.914,VALID,10,VALID,0.238672,
2009-10-05, 01:09:04,VALID,1000.62,VALID,0,VALID,86.2071,VALID,0.112286,VALID,23.8945,VALID,10,VALID,0,
2009-10-05, 01:10:04,VALID,1000.62,VALID,0,VALID,86.3139,VALID,0.112286,VALID,23.8945,VALID,10,VALID,0,
2009-10-05, 01:11:04,VALID,1000.59,VALID,0,VALID,86.3902,VALID,0,VALID,23.8768,VALID,10,VALID,0,
2009-10-05, 01:12:04,VALID,1000.59,VALID,0,VALID,86.3368,VALID,0,VALID,23.8555,VALID,10,VALID,0.021875,
2009-10-05, 01:13:04,VALID,1000.55,VALID,0,VALID,86.1842,VALID,0.112286,VALID,23.875,VALID,11,VALID,0.139844,
2009-10-05, 01:14:04,VALID,1000.55,VALID,0,VALID,86.1613,VALID,0.112286,VALID,23.8945,VALID,11,VALID,0.2125,
2009-10-05, 01:15:04,VALID,1000.51,VALID,0,VALID,85.94,VALID,0.112286,VALID,23.914,VALID,11,VALID,0.302734,
2009-10-05, 01:16:04,VALID,1000.49,VALID,0,VALID,85.6501,VALID,0,VALID,23.9336,VALID,11,VALID,0.394922,
2009-10-05, 01:17:04,VALID,1000.48,VALID,0,VALID,85.2763,VALID,0.112286,VALID,23.9726,VALID,45,VALID,0.564844,
2009-10-05, 01:18:04,VALID,1000.48,VALID,0,VALID,83.9258,VALID,0.112286,VALID,24.0116,VALID,140,VALID,0.740234,
2009-10-05, 01:19:04,VALID,1000.5,VALID,0,VALID,82.789,VALID,0.112286,VALID,24.0897,VALID,137,VALID,1.50156,
2009-10-05, 01:20:04,VALID,1000.52,VALID,0,VALID,82.171,VALID,0.112286,VALID,24.2067,VALID,136,VALID,1.19609,
2009-10-05, 01:21:04,VALID,1000.5,VALID,0,VALID,81.8735,VALID,0.112286,VALID,24.2653,VALID,133,VALID,1.30469,
2009-10-05, 01:22:04,VALID,1000.52,VALID,0,VALID,81.614,VALID,0.112286,VALID,24.2848,VALID,143,VALID,1.16836,
2009-10-05, 01:23:04,VALID,1000.53,VALID,0,VALID,81.3089,VALID,0.112286,VALID,24.3452,VALID,142,VALID,1.44922,
2009-10-05, 01:24:04,VALID,1000.52,VALID,0,VALID,80.8511,VALID,0.112286,VALID,24.4019,VALID,138,VALID,1.34453,
2009-10-05, 01:25:04,VALID,1000.52,VALID,0,VALID,80.5306,VALID,0.112286,VALID,24.4604,VALID,133,VALID,1.2043,
2009-10-05, 01:26:04,VALID,1000.5,VALID,0,VALID,80.111,VALID,0.112286,VALID,24.519,VALID,130,VALID,1.14219,
2009-10-05, 01:27:04,VALID,1000.47,VALID,0,VALID,79.9813,VALID,0,VALID,24.5775,VALID,138,VALID,0.992578,
2009-10-05, 01:28:04,VALID,1000.5,VALID,0,VALID,79.7066,VALID,0,VALID,24.5971,VALID,144,VALID,0.96875,
2009-10-05, 01:29:04,VALID,1000.48,VALID,0,VALID,79.5159,VALID,0,VALID,24.638,VALID,139,VALID,0.890234,
2009-10-05, 01:30:04,VALID,1000.48,VALID,0,VALID,79.2565,VALID,0,VALID,24.677,VALID,143,VALID,1.0043,
2009-10-05, 01:31:04,VALID,1000.46,VALID,0,VALID,79.226,VALID,0,VALID,24.716,VALID,140,VALID,0.961719,
2009-10-05, 01:32:04,VALID,1000.48,VALID,0,VALID,79.2718,VALID,0,VALID,24.6965,VALID,133,VALID,0.805078,
2009-10-05, 01:33:04,VALID,1000.46,VALID,0,VALID,79.1497,VALID,0,VALID,24.716,VALID,143,VALID,1.01836,
2009-10-05, 01:34:04,VALID,1000.48,VALID,0,VALID,79.0047,VALID,0,VALID,24.7551,VALID,154,VALID,0.974609,
2009-10-05, 01:35:04,VALID,1000.47,VALID,0,VALID,78.8292,VALID,0,VALID,24.7746,VALID,149,VALID,1.22187,
2009-10-05, 01:36:04,VALID,1000.47,VALID,0,VALID,78.5393,VALID,0,VALID,24.8136,VALID,142,VALID,1.50352,
2009-10-05, 01:37:04,VALID,1000.46,VALID,0,VALID,78.3486,VALID,0,VALID,24.8722,VALID,154,VALID,1.025,
2009-10-05, 01:38:04,VALID,1000.44,VALID,0,VALID,77.8984,VALID,0,VALID,24.9308,VALID,154,VALID,1.40234,
2009-10-05, 01:39:04,VALID,1000.43,VALID,0,VALID,77.6238,VALID,0,VALID,25.0284,VALID,141,VALID,1.1207,
2009-10-05, 01:40:04,VALID,1000.43,VALID,0,VALID,77.3949,VALID,0,VALID,25.0674,VALID,141,VALID,1.20938,
2009-10-05, 01:41:04,VALID,1000.41,VALID,0,VALID,77.3643,VALID,0,VALID,25.126,VALID,143,VALID,1.18789,
2009-10-05, 01:42:04,VALID,1000.4,VALID,0,VALID,77.494,VALID,0,VALID,25.126,VALID,147,VALID,1.16562,
2009-10-05, 01:43:04,VALID,1000.38,VALID,0,VALID,77.5856,VALID,0,VALID,25.126,VALID,165,VALID,1.04844,
2009-10-05, 01:44:04,VALID,1000.39,VALID,0,VALID,77.4178,VALID,0,VALID,25.126,VALID,157,VALID,1.23867,
2009-10-05, 01:45:04,VALID,1000.37,VALID,0,VALID,77.3491,VALID,0,VALID,25.1241,VALID,160,VALID,1.38125,
2009-10-05, 01:46:04,VALID,1000.36,VALID,0,VALID,77.3186,VALID,0,VALID,25.1845,VALID,158,VALID,1.27773,
2009-10-05, 01:47:04,VALID,1000.34,VALID,0,VALID,77.3338,VALID,0,VALID,25.1845,VALID,157,VALID,1.09297,
2009-10-05, 01:48:04,VALID,1000.38,VALID,0,VALID,77.3643,VALID,0,VALID,25.204,VALID,149,VALID,1.31953,
2009-10-05, 01:49:04,VALID,1000.39,VALID,0,VALID,77.4254,VALID,0,VALID,25.204,VALID,156,VALID,1.12617,
2009-10-05, 01:50:04,VALID,1000.36,VALID,0,VALID,77.5475,VALID,0,VALID,25.204,VALID,155,VALID,1.39297,
2009-10-05, 01:51:04,VALID,1000.34,VALID,0,VALID,77.6848,VALID,0,VALID,25.204,VALID,151,VALID,1.02344,
2009-10-05, 01:52:04,VALID,1000.35,VALID,0,VALID,77.7535,VALID,0,VALID,25.2236,VALID,143,VALID,1.13555,
2009-10-05, 01:53:04,VALID,1000.33,VALID,0,VALID,77.9518,VALID,0,VALID,25.204,VALID,146,VALID,1.01172,
2009-10-05, 01:54:04,VALID,1000.32,VALID,0,VALID,77.6772,VALID,0,VALID,25.1864,VALID,144,VALID,0.806641,
2009-10-05, 01:55:04,VALID,1000.31,VALID,0,VALID,77.784,VALID,0,VALID,25.1845,VALID,135,VALID,0.942578,
2009-10-05, 01:56:04,VALID,1000.29,VALID,0,VALID,77.9442,VALID,0,VALID,25.206,VALID,138,VALID,0.878516,
2009-10-05, 01:57:04,VALID,1000.29,VALID,0,VALID,77.6924,VALID,0,VALID,25.165,VALID,149,VALID,1.37188,
2009-10-05, 01:58:04,VALID,1000.28,VALID,0,VALID,77.8145,VALID,0,VALID,25.165,VALID,143,VALID,1.30664,
2009-10-05, 01:59:04,VALID,1000.29,VALID,0,VALID,77.7992,VALID,0,VALID,25.165,VALID,155,VALID,0.867188,
2009-10-05, 02:00:04,VALID,1000.27,VALID,0,VALID,78.0052,VALID,0,VALID,25.1455,VALID,145,VALID,0.839453,
2009-10-05, 02:01:04,VALID,1000.28,VALID,0,VALID,77.6619,VALID,0,VALID,25.165,VALID,153,VALID,0.779297,
2009-10-05, 02:02:04,VALID,1000.28,VALID,0,VALID,77.6466,VALID,0,VALID,25.165,VALID,157,VALID,0.701172,
2009-10-05, 02:03:04,VALID,1000.27,VALID,0,VALID,77.8069,VALID,0,VALID,25.165,VALID,157,VALID,0.266797,
2009-10-05, 02:04:04,VALID,1000.27,VALID,0,VALID,77.7153,VALID,0,VALID,25.1241,VALID,174,VALID,0.635547,
2009-10-05, 02:05:04,VALID,1000.31,VALID,0,VALID,77.8679,VALID,0,VALID,25.1455,VALID,154,VALID,0.555078,
2009-10-05, 02:06:04,VALID,1000.27,VALID,0,VALID,77.7916,VALID,0,VALID,25.1064,VALID,126,VALID,0.905078,
2009-10-05, 02:07:04,VALID,1000.28,VALID,0,VALID,77.8679,VALID,0,VALID,25.1064,VALID,138,VALID,0.88125,
2009-10-05, 02:08:04,VALID,1000.29,VALID,0,VALID,77.6466,VALID,0,VALID,25.1474,VALID,164,VALID,0.827734,
2009-10-05, 02:09:04,VALID,1000.29,VALID,0,VALID,77.5398,VALID,0,VALID,25.1455,VALID,165,VALID,1.00586,
2009-10-05, 02:10:04,VALID,1000.28,VALID,0,VALID,77.6161,VALID,0,VALID,25.165,VALID,163,VALID,0.423438,
2009-10-05, 02:11:04,VALID,1000.27,VALID,0,VALID,77.7077,VALID,0,VALID,25.165,VALID,160,VALID,0.539453,
2009-10-05, 02:12:04,VALID,1000.29,VALID,0,VALID,77.784,VALID,0,VALID,25.126,VALID,157,VALID,0.435937,
2009-10-05, 02:13:04,VALID,1000.24,VALID,0,VALID,77.9213,VALID,0,VALID,25.1279,VALID,154,VALID,0.472266,
2009-10-05, 02:14:04,VALID,1000.24,VALID,0,VALID,78.0892,VALID,0,VALID,25.0869,VALID,154,VALID,0.639844,
2009-10-05, 02:15:04,VALID,1000.23,VALID,0,VALID,78.196,VALID,0,VALID,25.0265,VALID,154,VALID,0.364844,
2009-10-05, 02:16:04,VALID,1000.2,VALID,0,VALID,78.3333,VALID,0,VALID,24.9874,VALID,154,VALID,0.254297,
2009-10-05, 02:17:04,VALID,1000.2,VALID,0,VALID,78.4325,VALID,0.112286,VALID,24.9484,VALID,154,VALID,0.232031,
2009-10-05, 02:18:04,VALID,1000.18,VALID,0,VALID,78.5012,VALID,0,VALID,24.9289,VALID,154,VALID,0.333984,
2009-10-05, 02:19:04,VALID,1000.18,VALID,0,VALID,78.8369,VALID,0.112286,VALID,24.8898,VALID,113,VALID,0.656641,
2009-10-05, 02:20:04,VALID,1000.16,VALID,0,VALID,78.9895,VALID,0,VALID,24.8703,VALID,111,VALID,0.474609,
2009-10-05, 02:21:04,VALID,1000.15,VALID,0,VALID,79.1726,VALID,0,VALID,24.8703,VALID,111,VALID,0.420703,
2009-10-05, 02:22:04,VALID,1000.18,VALID,0,VALID,79.1421,VALID,0,VALID,24.8703,VALID,111,VALID,0.517187,
2009-10-05, 02:23:04,VALID,1000.18,VALID,0,VALID,79.1268,VALID,0.112286,VALID,24.8898,VALID,111,VALID,0.457031,
2009-10-05, 02:24:04,VALID,1000.18,VALID,0,VALID,79.1039,VALID,0.112286,VALID,24.8898,VALID,111,VALID,0.576563,
2009-10-05, 02:25:04,VALID,1000.18,VALID,0,VALID,78.9971,VALID,0.112286,VALID,24.9093,VALID,119,VALID,0.627344,
2009-10-05, 02:26:04,VALID,1000.2,VALID,0,VALID,78.9208,VALID,0,VALID,24.9093,VALID,119,VALID,0.709766,
2009-10-05, 02:27:04,VALID,1000.18,VALID,0,VALID,79.0734,VALID,0.112286,VALID,24.8703,VALID,119,VALID,0.834766,
2009-10-05, 02:28:04,VALID,1000.18,VALID,0,VALID,79.3328,VALID,0,VALID,24.7922,VALID,119,VALID,0.827734,
2009-10-05, 02:29:04,VALID,1000.17,VALID,0,VALID,79.6151,VALID,0,VALID,24.7727,VALID,119,VALID,0.832422,
2009-10-05, 02:30:04,VALID,1000.19,VALID,0,VALID,79.7143,VALID,0,VALID,24.7532,VALID,119,VALID,0.941797,
2009-10-05, 02:31:04,VALID,1000.19,VALID,0,VALID,79.9279,VALID,0,VALID,24.7123,VALID,119,VALID,1.03711,
2009-10-05, 02:32:04,VALID,1000.18,VALID,0,VALID,80.1873,VALID,0,VALID,24.6751,VALID,111,VALID,0.948438,
2009-10-05, 02:33:04,VALID,1000.17,VALID,0,VALID,81.1639,VALID,0,VALID,24.5794,VALID,101,VALID,0.963672,
2009-10-05, 02:34:04,VALID,1000.17,VALID,0,VALID,81.5835,VALID,0,VALID,24.4214,VALID,97,VALID,0.925781,
2009-10-05, 02:35:04,VALID,1000.21,VALID,0,VALID,82.2855,VALID,0,VALID,24.3043,VALID,96,VALID,0.692578,
2009-10-05, 02:36:04,VALID,1000.24,VALID,0,VALID,82.7585,VALID,0,VALID,24.2067,VALID,96,VALID,0.623828,
2009-10-05, 02:37:04,VALID,1000.23,VALID,0,VALID,83.0179,VALID,0,VALID,24.1092,VALID,96,VALID,0.585547,
2009-10-05, 02:38:04,VALID,1000.27,VALID,0,VALID,83.2926,VALID,0,VALID,24.0116,VALID,95,VALID,0.485547,
2009-10-05, 02:39:04,VALID,1000.26,VALID,0,VALID,83.8114,VALID,0,VALID,23.9336,VALID,94,VALID,0.496094,
2009-10-05, 02:40:04,VALID,1000.28,VALID,0,VALID,84.3836,VALID,0,VALID,23.8573,VALID,22,VALID,0.71875,
2009-10-05, 02:41:04,VALID,1000.28,VALID,0,VALID,84.5972,VALID,0,VALID,23.7579,VALID,353,VALID,0.813281,
2009-10-05, 02:42:04,VALID,1000.25,VALID,0,VALID,84.9177,VALID,0,VALID,23.6214,VALID,348,VALID,0.855469,
2009-10-05, 02:43:04,VALID,1000.24,VALID,0,VALID,85.7951,VALID,0,VALID,23.5043,VALID,337,VALID,0.686719,
2009-10-05, 02:44:04,VALID,1000.23,VALID,0,VALID,86.2147,VALID,0,VALID,23.4475,VALID,335,VALID,0.636719,
2009-10-05, 02:45:04,VALID,1000.23,VALID,0,VALID,86.6115,VALID,0,VALID,23.389,VALID,335,VALID,0.546484,
2009-10-05, 02:46:04,VALID,1000.18,VALID,0,VALID,86.8861,VALID,0,VALID,23.3695,VALID,330,VALID,0.595703,
2009-10-05, 02:47:04,VALID,1000.24,VALID,0,VALID,87.0082,VALID,0,VALID,23.389,VALID,322,VALID,0.747656,
2009-10-05, 02:48:04,VALID,1000.22,VALID,0,VALID,86.97,VALID,0,VALID,23.4085,VALID,321,VALID,0.663281,
2009-10-05, 02:49:04,VALID,1000.23,VALID,0,VALID,86.9472,VALID,0,VALID,23.4493,VALID,318,VALID,0.589453,
2009-10-05, 02:50:04,VALID,1000.24,VALID,0,VALID,86.8098,VALID,0,VALID,23.4671,VALID,318,VALID,0.40625,
2009-10-05, 02:51:04,VALID,1000.24,VALID,0,VALID,86.6038,VALID,0,VALID,23.4866,VALID,318,VALID,0.398047,
2009-10-05, 02:52:04,VALID,1000.27,VALID,0,VALID,86.4817,VALID,0,VALID,23.5274,VALID,318,VALID,0.423438,
2009-10-05, 02:53:04,VALID,1000.28,VALID,0,VALID,86.2529,VALID,0,VALID,23.5274,VALID,318,VALID,0.322266,
2009-10-05, 02:54:04,VALID,1000.26,VALID,0,VALID,86.23,VALID,0,VALID,23.4866,VALID,318,VALID,0.351563,
2009-10-05, 02:55:04,VALID,1000.28,VALID,0,VALID,86.5962,VALID,0,VALID,23.4475,VALID,318,VALID,0.621484,
2009-10-05, 02:56:04,VALID,1000.3,VALID,0,VALID,86.4741,VALID,0,VALID,23.4671,VALID,318,VALID,0.519922,
2009-10-05, 02:57:04,VALID,1000.29,VALID,0,VALID,86.3444,VALID,0,VALID,23.4475,VALID,318,VALID,0.734766,
2009-10-05, 02:58:04,VALID,1000.32,VALID,0,VALID,86.6877,VALID,0,VALID,23.4085,VALID,318,VALID,0.595703,
2009-10-05, 02:59:04,VALID,1000.32,VALID,0,VALID,86.8632,VALID,0,VALID,23.4493,VALID,318,VALID,0.480859,
2009-10-05, 03:00:04,VALID,1000.32,VALID,0,VALID,86.9014,VALID,0,VALID,23.428,VALID,318,VALID,0.427344,
2009-10-05, 03:01:04,VALID,1000.34,VALID,0,VALID,86.703,VALID,0,VALID,23.428,VALID,318,VALID,0.335547,
2009-10-05, 03:02:04,VALID,1000.35,VALID,0,VALID,86.497,VALID,0,VALID,23.4103,VALID,318,VALID,0.398438,
2009-10-05, 03:03:04,VALID,1000.37,VALID,0,VALID,87.0463,VALID,0,VALID,23.3695,VALID,318,VALID,0.367969,
2009-10-05, 03:04:04,VALID,1000.37,VALID,0,VALID,87.1532,VALID,0,VALID,23.3908,VALID,318,VALID,0.435156,
2009-10-05, 03:05:04,VALID,1000.39,VALID,0,VALID,87.2371,VALID,0,VALID,23.389,VALID,318,VALID,0.353125,
2009-10-05, 03:06:04,VALID,1000.44,VALID,0,VALID,86.5733,VALID,0,VALID,23.3695,VALID,322,VALID,0.516406,
2009-10-05, 03:07:04,VALID,1000.44,VALID,0,VALID,87.3363,VALID,0,VALID,23.3305,VALID,28,VALID,0.799219,
2009-10-05, 03:08:04,VALID,1000.49,VALID,0,VALID,87.7864,VALID,0,VALID,23.311,VALID,28,VALID,0.8,
2009-10-05, 03:09:04,VALID,1000.47,VALID,0,VALID,86.8327,VALID,0,VALID,23.311,VALID,38,VALID,0.862109,
2009-10-05, 03:10:04,VALID,1000.48,VALID,0,VALID,86.5351,VALID,0,VALID,23.2915,VALID,40,VALID,0.891016,
2009-10-05, 03:11:04,VALID,1000.47,VALID,0,VALID,86.5123,VALID,0,VALID,23.2524,VALID,36,VALID,1.3332,
2009-10-05, 03:12:04,VALID,1000.47,VALID,0,VALID,86.7259,VALID,0,VALID,23.1939,VALID,39,VALID,1.50156,
2009-10-05, 03:13:04,VALID,1000.47,VALID,0,VALID,86.97,VALID,0,VALID,23.1549,VALID,44,VALID,1.47734,
2009-10-05, 03:14:04,VALID,1000.47,VALID,0,VALID,87.527,VALID,0,VALID,23.1371,VALID,53,VALID,1.49063,
2009-10-05, 03:15:04,VALID,1000.44,VALID,0,VALID,87.9314,VALID,0,VALID,23.0964,VALID,56,VALID,1.49102,
2009-10-05, 03:16:04,VALID,1000.45,VALID,0,VALID,88.0992,VALID,0,VALID,23.0981,VALID,59,VALID,1.1207,
2009-10-05, 03:17:04,VALID,1000.43,VALID,0,VALID,88.2747,VALID,0,VALID,23.0573,VALID,49,VALID,1.03906,
2009-10-05, 03:18:04,VALID,1000.43,VALID,0,VALID,88.3739,VALID,0,VALID,23.0183,VALID,47,VALID,0.251563,
2009-10-05, 03:19:04,VALID,1000.42,VALID,0,VALID,88.5951,VALID,0,VALID,22.9793,VALID,44,VALID,0.243359,
2009-10-05, 03:20:04,VALID,1000.4,VALID,0,VALID,88.6867,VALID,0,VALID,22.9811,VALID,304,VALID,0.718359,
2009-10-05, 03:21:04,VALID,1000.39,VALID,0,VALID,88.7859,VALID,0,VALID,22.9811,VALID,323,VALID,0.702344,
2009-10-05, 03:22:04,VALID,1000.41,VALID,0,VALID,88.824,VALID,0,VALID,22.9988,VALID,15,VALID,0.791016,
2009-10-05, 03:23:04,VALID,1000.4,VALID,0,VALID,88.7401,VALID,0,VALID,22.9988,VALID,34,VALID,0.7875,
2009-10-05, 03:24:04,VALID,1000.37,VALID,0,VALID,88.7325,VALID,0,VALID,22.9988,VALID,48,VALID,0.936719,
2009-10-05, 03:25:04,VALID,1000.36,VALID,0,VALID,88.6486,VALID,0,VALID,22.9988,VALID,48,VALID,1.03867,
2009-10-05, 03:26:04,VALID,1000.36,VALID,0,VALID,88.5341,VALID,0,VALID,22.9793,VALID,56,VALID,1.02852,
2009-10-05, 03:27:04,VALID,1000.35,VALID,0,VALID,88.5036,VALID,0,VALID,22.9598,VALID,60,VALID,1.14922,
2009-10-05, 03:28:04,VALID,1000.37,VALID,0,VALID,88.5875,VALID,0,VALID,22.9598,VALID,63,VALID,1.16289,
2009-10-05, 03:29:04,VALID,1000.37,VALID,0,VALID,88.5494,VALID,0,VALID,22.9403,VALID,66,VALID,1.08398,
2009-10-05, 03:30:04,VALID,1000.34,VALID,0,VALID,88.2366,VALID,0,VALID,22.9403,VALID,65,VALID,0.991016,
2009-10-05, 03:31:04,VALID,1000.36,VALID,0,VALID,88.0534,VALID,0,VALID,22.9403,VALID,61,VALID,0.625391,
2009-10-05, 03:32:04,VALID,1000.39,VALID,0,VALID,87.9924,VALID,0,VALID,22.9598,VALID,61,VALID,0.341406,
2009-10-05, 03:33:04,VALID,1000.33,VALID,0,VALID,88.084,VALID,0,VALID,22.9598,VALID,23,VALID,0.452344,
2009-10-05, 03:34:04,VALID,1000.34,VALID,0,VALID,88.2442,VALID,0,VALID,22.9598,VALID,318,VALID,0.855469,
2009-10-05, 03:35:04,VALID,1000.35,VALID,0,VALID,88.1221,VALID,0,VALID,22.9598,VALID,313,VALID,0.723828,
2009-10-05, 03:36:04,VALID,1000.33,VALID,0,VALID,87.7559,VALID,0,VALID,22.9598,VALID,331,VALID,0.860937,
2009-10-05, 03:37:04,VALID,1000.34,VALID,0,VALID,87.5575,VALID,0,VALID,23.0201,VALID,330,VALID,0.70625,
2009-10-05, 03:38:04,VALID,1000.33,VALID,0,VALID,87.4049,VALID,0,VALID,23.0183,VALID,330,VALID,0.0128906,
2009-10-05, 03:39:04,VALID,1000.33,VALID,0,VALID,87.3057,VALID,0,VALID,22.9988,VALID,330,VALID,0,
2009-10-05, 03:40:04,VALID,1000.34,VALID,0,VALID,87.3744,VALID,0,VALID,23.0201,VALID,330,VALID,0,
2009-10-05, 03:41:04,VALID,1000.3,VALID,0,VALID,87.4202,VALID,0,VALID,22.9793,VALID,330,VALID,0,
2009-10-05, 03:42:04,VALID,1000.31,VALID,0,VALID,87.5194,VALID,0,VALID,22.9598,VALID,330,VALID,0,
2009-10-05, 03:43:04,VALID,1000.31,VALID,0,VALID,87.6338,VALID,0,VALID,22.9615,VALID,330,VALID,0.25625,
2009-10-05, 03:44:04,VALID,1000.3,VALID,0,VALID,87.8246,VALID,0,VALID,22.942,VALID,332,VALID,0.295703,